www.pogodaiklimat.ru

Погода и климат >> Архив погоды >> Россия >> Оренбургская область >> Беляевка


ПОГОДА в Беляевке

  • Прогноз погоды в Беляевке
  • Монитор погоды в Беляевке
  • Климат города

АРХИВ ПОГОДЫ в Беляевке

Время (UTC), дата Ветер
(напр.,м/с)
 
Видим.   Явления Облачность Т
(С)
Тd
(С)
f
(%)
Тe
(С)
Тes
(С)
Комфортность P
(гПа)
Po
(гПа)
Тmin
(С)
Tmax
(С)
R
(мм)
R24
(мм)
S
(см)
06 17.08 СВ 2 20 км 8/0
[Ci fib]
+25.3 +13.2 47 +27 +36 жарко 1023.3 1007.9
09 17.08 СВ 2 20 км 8/0
[Ac As Ci fib]
+30.2 +10.7 30 +30 +38 жарко 1022.3 1007.2
12 17.08 С 3 20 км 8/8 800 м
[Cu med, cong]
+30.2 +10.2 29 +30 +31 жарко 1021.4 1006.2
15 17.08 С 2 20 км 9/0
[Ci fib]
+26.6 +10.1 35 +27 +27 жарко 1021.3 1006.0 +30.7
18 17.08 В 1 10 км 6/0
[Ci fib]
+19.8 +10.7 56 +22 +22 комфорт 1022.4 1006.7
21 17.08 СЗ 1 10 км ясно +15.0 +7.9 62 +16 +16 1023.1 1007.1
00 18.08 В 1 10 км ясно +13.4 +10.0 80 +14 +14 1023.1 1007.0
03 18.08 В 1 20 км ясно +18.2 +12.4 69 +20 +22 1023.7 1007.9 +12.4
06 18.08 В 3 20 км ясно +25.7 +13.1 46 +28 +36 жарко 1023.2 1007.8
09 18.08 В 5
{11}
20 км 8/8 900 м
[Cu med, cong]
+29.7 +10.8 31 +30 +31 жарко 1022.3 1007.1
12 18.08 В 3 20 км 8/8 930 м
[Cu med, cong]
+30.4 +9.2 27 +30 +31 жарко 1021.3 1006.2
15 18.08 СВ 2 20 км 3/0
[Ac trans]
+26.7 +9.4 34 +27 +27 жарко 1021.0 1005.7 +30.8
18 18.08 В 2 10 км 9/0
[Ci fib]
+18.8 +9.1 53 +20 +20 1022.7 1006.9
21 18.08 В 2 10 км ясно +14.1 +7.4 64 +14 +14 1023.4 1007.4
00 19.08 В 3 10 км ясно +14.5 +7.2 62 +14 +14 1023.8 1007.8
03 19.08 В 4 20 км 6/6 630 м
[Cb calv]
+19.0 +7.7 48 +20 +20 1024.6 1008.8 +13.5
06 19.08 Ю 4 20 км 6/6 870 м
[Cu med, cong]
+25.9 +6.2 28 +25 +28 комфорт 1024.4 1009.0
09 19.08 Ю 3 20 км ясно +31.3 +7.1 22 +30 +40 жарко 1023.0 1007.8
12 19.08 Ю 3 20 км 8/8
[Cu med, cong]
+30.7 +5.9 21 +29 +30 жарко 1022.1 1006.9
15 19.08 ЮВ 2 20 км 5/5 900 м
[Cu med, cong]
+29.4 +6.6 24 +28 +28 жарко 1021.7 1006.5 +32.0
18 19.08 Ю 3 10 км ясно +22.0 +6.1 36 +23 +23 комфорт 1022.4 1006.8
21 19.08 Ю 3 10 км ясно +19.4 +6.5 43 +20 +20 1022.9 1007.1
00 20.08 В 2 10 км ясно +13.7 +6.4 61 +13 +13 1024.1 1008.0
03 20.08 ЮВ 2 20 км ясно +18.6 +6.5 45 +19 +21 1024.6 1008.8 +12.7
06 20.08 З 4 20 км ясно +27.3 +3.1 21 +26 +32 жарко 1023.4 1008.0
09 20.08 ЮЗ 2 20 км ясно +31.8 +3.3 16 +29 +42 жарко 1021.4 1006.3
12 20.08 С 3 20 км 3/0
[Ci fib]
+32.2 +5.9 19 +30 +34 жарко 1020.1 1005.0
15 20.08 С 4 20 км 8/0
[Ci fib]
+27.5 +10.3 34 +28 +28 жарко 1020.4 1005.1 +33.0
18 20.08 З 2 10 км ясно +20.6 +10.4 52 +23 +23 комфорт 1021.8 1006.1
21 20.08 З 3 10 км ясно +14.9 +7.5 61 +14 +14 1021.5 1005.6
00 21.08 СЗ 1 10 км 8/0
[Ci fib]
+12.7 +7.5 71 +13 +13 1021.6 1005.5
03 21.08 З 2 20 км 8/0
[Ac As]
+12.8 +7.7 71 +12 +13 1022.2 1006.1 +12.1
06 21.08 В 5 20 км ясно +25.7 +7.4 31 +26 +31 жарко 1021.2 1005.9
09 21.08 В 4 20 км 9/0
[Ac und]
+29.5 +7.1 24 +28 +31 жарко 1020.3 1005.1
12 21.08 В 3 20 км 8/8 750 м
[Cu med, cong]
+30.7 +7.2 23 +29 +30 жарко 1018.9 1003.8
15 21.08 СВ 2 20 км 3/0
[Ac trans]
+25.7 +9.2 35 +26 +26 жарко 1019.0 1003.6 +31.1
18 21.08 СВ 2 10 км ясно +19.2 +9.6 54 +21 +21 комфорт 1019.7 1004.0
21 21.08 В 2 10 км ясно +15.3 +8.7 65 +15 +15 1020.6 1004.7
00 22.08 В 2 10 км ясно +13.3 +7.8 69 +13 +13 1021.9 1005.8
03 22.08 В 4 20 км ясно +18.1 +9.5 57 +18 +19 1022.8 1007.0 +11.8
06 22.08 В 2 20 км ясно +27.7 +8.1 29 +27 +37 жарко 1022.6 1007.2
09 22.08 В 4
{11}
20 км ясно +31.1 +4.0 18 +29 +37 жарко 1021.0 1005.9
12 22.08 СВ 3 20 км ясно +32.2 +3.4 16 +30 +34 жарко 1020.1 1005.0
15 22.08 В 2 20 км ясно +26.9 +3.8 23 +26 +26 жарко 1020.5 1005.2 +32.3
18 22.08 СВ 2 10 км ясно +18.6 +7.2 47 +19 +19 1022.3 1006.5
21 22.08 В 2 10 км ясно +14.9 +6.0 55 +15 +15 1023.1 1007.1
00 23.08 В 2 10 км ясно +13.1 +6.1 62 +13 +13 1024.2 1008.1
03 23.08 В 3 20 км ясно +18.3 +7.0 48 +19 +20 1025.8 1009.9 +11.4
06 23.08 В 5 20 км ясно +29.2 +4.8 21 +28 +33 жарко 1025.5 1010.2
09 23.08 ЮВ 6
{13}
20 км ясно +33.7 +1.1 13 +31 +35 жарко 1024.3 1009.2
12 23.08 ЮВ 5
{13}
20 км ясно +33.8 +0.9 12 +30 +33 жарко 1023.6 1008.5
15 23.08 В 2
{11}
20 км ясно +28.3 +2.2 19 +26 +26 жарко 1023.1 1007.8 +34.4
18 23.08 ЮВ 1 10 км ясно +18.7 +5.4 42 +20 +20 1024.5 1008.7
21 23.08 В 3 10 км ясно +15.6 +4.9 49 +15 +15 1025.2 1009.2
00 24.08 В 2 10 км ясно +13.6 +5.7 59 +13 +13 1025.6 1009.5
03 24.08 В 4 20 км ясно +18.3 +6.3 45 +18 +19 1025.8 1009.9 +12.5

 

Местоположение метеостанции Беляевка (Оренбургская область, Россия): широта 51.42 долгота 56.42 высота над уровнем моря 131 м.

В архиве по умолчанию представлена погода в Беляевке за последнюю неделю. Архивные данные за месяц целиком и за предыдущие месяцы, начиная с января 2011 года, Вы можете получить, выбрав интересующий диапазон дат из раскрывающегося списка и нажав кнопку "Ввод!".

Внимание! Время в таблицах - всемирное. Для получения местного времени необходимо прибавить поправку, которая в Беляевке равна 5 ч.

Смотрите также архив погоды в соседних городах и на ближайших метеорологических станциях:

Погода в Кувандыке (Оренбургская область, Россия) (66 км)
Погода в Акбулаке (Оренбургская область, Россия) (71 км)
Погода в Мартуке (Актюбинская область, Казахстан) (75 км)
Погода в Оренбурге (Оренбургская область, Россия) (96 км)
Погода в Троицком Т (Оренбургская область, Россия) (101 км)
Погода в Родниковке (Актюбинская область, Казахстан) (101 км)
Погода в Соль-Илецк (Оренбургская область, Россия) (102 км)
Погода в Зилаире (Башкирия, Россия) (112 км)
Погода в Кос-Истеке (Актюбинская область, Казахстан) (129 км)
Погода в Акъяре (Башкирия, Россия) (131 км)

Пояснения к столбцам:

Ветер - указаны скорость ветра в м/с - средняя за 10 мин, порывы в срок и между сроками (в фигурных скобках) и направление, откуда дует ветер: С - северный, СВ - северо-восточный, В - восточный, ЮВ - юго-восточный, Ю - южный, ЮЗ - юго-западный, З - западный, СЗ - северо-западный.
Видимость - горизонтальная дальность видимости в метрах или километрах. При видимости от 1 до 10 км при отсутствии осадков обычно наблюдается дымка, при ухудшении видимости до 1 км и менее - туман. В сухую погоду видимость может ухудшаться дымом, пылью или мглою.
Явления - указаны атмосферные явления, наблюдавшиеся в срок или в последний час перед сроком; фигурными скобками обозначены явления, наблюдавшиеся между сроками (за 1-3 часа до срока); квадратными скобками обозначены град или гололедные отложения с указанием их диаметра в мм.
Облачность - указаны через наклонную черту общая и нижняя облачность в баллах и высота нижней границы облаков в метрах; квадратными скобками обозначены формы облаков: Ci - перистые, Cs - перисто-слоистые, Cc - перисто-кучевые, Ac - высококучевые, As - высокослоистые, Sc - слоисто-кучевые, Ns - слоисто-дождевые, Cu - кучевые, Cb - кучево-дождевые. Подробнее классификацию облаков см. в Атласе облаков (PDF).
T - Температура воздуха - температура, измеренная на высоте 2 м над землей.
Td - Температура точки росы - температура, при понижении до которой содержащийся в воздухе водяной пар достигнет насыщения.
f - Относительная влажность воздуха - влажноcть воздуха, измеренная на высоте 2 м над землей.
Te - Эффективная температура - температура, которую ощущает одетый по сезону человек в тени. Характеристика душности погоды. При расчете учитывается влияние влажности воздуха и скорости ветра на теплоощущения человека.
Tes - Эффективная температура на солнце - температура, которую ощущает человек, с поправкой на солнечный нагрев. Характеристика знойности погоды. Зависит от высоты солнца над горизонтом, облачности и скорости ветра. Ночью, в пасмурную погоду, а также при ветре 12 м/с и более поправка равна нулю.
P - Атмосферное давление - приведенное к уровню моря атмосферное давление.
Po - Атмосферное давление - измеренное на уровне метеостанции атмосферное давление.
Tmin - Минимальная температура - минимум температуры воздуха на высоте 2 м над землей.
Tmax - Максимальная температура - максимум температуры воздуха на высоте 2 м над землей.
R - Количество осадков - Количество выпавших осадков за период времени, мм. При наведении курсора мыши на число - период времени, за который выпало указанное количество осадков.
R24 - Количество осадков - Количество выпавших осадков за 24 часа, мм.
S - Снежный покров - Высота снежного покрова, см. При наведении курсора мыши на число - состояние снежного покрова и степень покрытия местности в баллах.